Location: American Medical Response
(33.3472°N, 96.5511°W)
Time: 11:43:48
(UTC+00:00)

GPS 2-04 Rocket1 - Pass Details

Date: 08 December 2021
Orbit: 411 x 533 km, 35.6° (Epoch: 22 January)

Event Time Altitude Azimuth Distance (km) Brightness Sun altitude
Rises 23:41:28 0° 284° (WNW) 2,655 7.3 -5.1°
Reaches altitude 10° 23:43:43 10° 280° (W) 1,774 6.4 -5.6°
Maximum altitude 23:47:46 61° 200° (SSW) 605 3.3 -6.3°
Drops below altitude 10° 23:51:49 10° 120° (ESE) 1,777 5.1 -7.1°
Sets 23:54:05 0° 117° (ESE) 2,660 5.9 -7.6°
